FW9692 Weather Reports


time (UTC)temp
C
wind
direction
speed
KPH
gust
KPH
rain 1hr
cm
rain 24hr
cm
rain mn
cm
humidity
%
barometer
mb
20260506234511 27 268 20.9 40.2 0.00 0.00 0.00 15 998.7
20260506233012 27 290 25.7 37.0 0.00 0.00 0.00 16 998.7
20260506231510 27 259 24.1 40.2 0.00 0.00 0.00 16 998.7
20260506230009 27 310 37.0 48.3 0.00 0.00 0.00 15 998.7
20260506224604 27 289 33.8 48.3 0.00 0.00 0.00 15 998.8
20260506224501 27 290 37.0 48.3 0.00 0.00 0.00 15 998.7
20260506223103 27 273 27.4 51.5 0.00 0.00 0.00 15 998.8
20260506221617 27 275 29.0 49.9 0.00 0.00 0.00 14 998.8
20260506220100 27 284 29.0 45.1 0.00 0.00 0.00 15 998.8
20260506214512 27 288 32.2 51.5 0.00 0.00 0.00 15 998.9
20260506213016 27 257 33.8 45.1 0.00 0.00 0.00 15 999.0
20260506211509 27 279 24.1 35.4 0.00 0.00 0.00 15 999.1
20260506210009 26 286 27.4 54.7 0.00 0.00 0.00 16 999.2
20260506204505 26 304 37.0 51.5 0.00 0.00 0.00 16 999.4
20260506203008 26 272 38.6 46.7 0.00 0.00 0.00 17 999.5
20260506201504 26 309 37.0 48.3 0.00 0.00 0.00 18 999.6
20260506200003 26 277 30.6 54.7 0.00 0.00 0.00 18 999.8
20260506194601 26 306 37.0 57.9 0.00 0.00 0.00 18 999.8
20260506193105 26 286 41.8 56.3 0.00 0.00 0.00 18 999.9
20260506191556 25 284 27.4 51.5 0.00 0.00 0.00 19 1000.3
20260506190056 25 296 24.1 56.3 0.00 0.00 0.00 20 1000.5
20260506184504 25 293 46.7 56.3 0.00 0.00 0.00 20 1000.9
20260506183109 25 305 27.4 53.1 0.00 0.00 0.00 23 1001.0
20260506181604 25 275 41.8 54.7 0.00 0.00 0.00 21 1000.9
20260506180059 23 279 17.7 25.7 0.00 0.00 0.00 24 1001.3
20260506174543 23 250 4.8 12.9 0.00 0.00 0.00 29 1001.7
20260506173045 23 182 12.9 19.3 0.00 0.00 0.00 29 1001.7
20260506171539 22 26 1.6 9.7 0.00 0.00 0.00 30 1001.9
20260506170044 22 185 1.6 20.9 0.00 0.00 0.00 30 1001.8
20260506164555 21 33 14.5 20.9 0.00 0.00 0.00 33 1001.8
20260506163042 21 346 16.1 24.1 0.00 0.00 0.00 33 1001.8
20260506161537 21 323 12.9 22.5 0.00 0.00 0.00 34 1001.7
20260506160037 21 42 8.0 17.7 0.00 0.00 0.00 34 1001.8
20260506154542 20 27 11.3 20.9 0.00 0.00 0.00 34 1001.8
20260506153035 20 341 17.7 22.5 0.00 0.00 0.00 33 1001.8
20260506151537 20 16 17.7 29.0 0.00 0.00 0.00 32 1001.6
20260506150033 21 18 17.7 25.7 0.00 0.00 0.00 29 1001.4
20260506144536 20 346 19.3 25.7 0.00 0.00 0.00 29 1001.3
20260506143039 20 336 8.0 16.1 0.00 0.00 0.00 30 1001.4
20260506141541 20 310 11.3 19.3 0.00 0.00 0.00 32 1001.4
20260506140036 19 269 14.5 19.3 0.00 0.00 0.00 31 1001.2
20260506134524 19 265 14.5 19.3 0.00 0.00 0.00 34 1001.2
20260506133021 19 266 17.7 22.5 0.00 0.00 0.00 30 1000.9
20260506131520 19 269 17.7 22.5 0.00 0.00 0.00 30 1000.8
20260506130018 20 287 12.9 16.1 0.00 0.00 0.00 28 1000.6
20260506124508 20 281 12.9 17.7 0.00 0.00 0.00 28 1000.5
20260506123007 20 268 14.5 19.3 0.00 0.00 0.00 29 1000.3
20260506121506 19 279 16.1 20.9 0.00 0.00 0.00 30 999.8
20260506120004 19 279 16.1 22.5 0.00 0.00 0.00 30 999.4
20260506114503 20 270 17.7 25.7 0.00 0.00 0.00 29 999.3
20260506113002 20 267 20.9 24.1 0.00 0.00 0.00 29 999.2
20260506111559 20 269 17.7 20.9 0.00 0.00 0.00 28 999.1
20260506110113 20 268 17.7 20.9 0.00 0.00 0.00 28 999.1
20260506104526 20 257 12.9 17.7 0.00 0.00 0.00 28 999.0
20260506103033 20 275 16.1 20.9 0.00 0.00 0.00 27 998.7
20260506101509 20 277 24.1 33.8 0.00 0.00 0.00 26 998.5
20260506100006 21 279 29.0 37.0 0.00 0.00 0.00 25 998.2
20260506094603 21 277 29.0 37.0 0.00 0.00 0.00 25 998.2
20260506093054 21 280 25.7 32.2 0.00 0.00 0.00 27 998.0
20260506091551 -17 0.0 0.0 0.00 0.00 0.00 998.1
20260506090046 -17 0.0 0.0 0.00 0.00 0.00 997.9
20260506084611 -17 0.0 0.0 0.00 0.00 0.00 997.8
20260506083038 -17 0.0 0.0 0.00 0.00 0.00 997.9
20260506081539 -17 0.0 0.0 0.00 0.00 0.00 997.9
20260506073020 -17 0.0 0.0 0.00 0.00 0.00 997.9
20260506071511 -17 0.0 0.0 0.00 0.00 0.00 997.8
20260506061516 21 244 12.9 17.7 0.00 0.00 0.00 42 997.6
20260506044508 23 270 6.4 12.9 0.00 0.00 0.00 36 997.1
20260506043008 22 225 4.8 8.0 0.00 0.00 0.00 37 996.9
20260506041507 22 229 4.8 11.3 0.00 0.00 0.00 36 996.7
20260506040006 23 284 11.3 14.5 0.00 0.00 0.00 35 996.6
20260506034504 23 286 9.7 12.9 0.00 0.00 0.00 35 996.6
20260506033004 23 294 6.4 14.5 0.00 0.00 0.00 35 996.2
20260506031505 23 307 11.3 19.3 0.00 0.00 0.00 35 996.0
20260506030001 23 312 19.3 25.7 0.00 0.00 0.00 34 995.8
20260506024605 23 309 19.3 25.7 0.00 0.00 0.00 33 995.6
20260506023109 24 319 19.3 24.1 0.00 0.00 0.00 32 995.5
20260506021617 25 329 14.5 19.3 0.00 0.00 0.00 30 995.5
20260506020057 25 319 4.8 9.7 0.00 0.00 0.00 28 995.4
20260506014504 26 324 6.4 14.5 0.00 0.00 0.00 27 995.2
20260506013003 26 334 3.2 6.4 0.00 0.00 0.00 26 995.1
20260506011503 26 195 4.8 14.5 0.00 0.00 0.00 25 994.8
20260506010003 26 186 11.3 12.9 0.00 0.00 0.00 26 994.8
20260506004553 26 182 14.5 16.1 0.00 0.00 0.00 25 994.9
20260506003054 27 209 12.9 22.5 0.00 0.00 0.00 25 994.8
20260506001554 27 223 16.1 25.7 0.00 0.00 0.00 25 994.8
20260506000050 27 221 16.1 29.0 0.00 0.00 0.00 24 994.8